Location: Omaha
(41.2590°N, 95.9380°W)
Time: 04:51:49
(UTC-05:00)

OTV 5 (USA 277) - Pass Details

Date: 15 October 2017
Orbit: 404 x 417 km, 43.0° (Epoch: 07 September)

Event Time Altitude Azimuth Distance (km) Brightness Sun altitude
Rises 20:52:36 0° 281° (W) 2,355 ? -25.2°
Reaches altitude 10° 20:54:43 10° 284° (WNW) 1,492 ? -25.6°
Enters shadow 20:56:30 29° 290° (WNW) 804 ? -25.9°
